This is the latest recevied weather packets stored in our database for station/object EA7OC-10. If no packets are shown the sender has not sent any weather packets the latest 10 day(s).
| Time | Temp. | Humidity | Pressure | Rain* | Wind** | Luminosity | Snow |
|---|---|---|---|---|---|---|---|
| 1788284279 | 41.67° C | 21% | 1015.4 hPa | - | - | - | - |
| 1788283379 | 42.22° C | 21% | 1015.4 hPa | - | - | - | - |
| 1788282479 | 42.78° C | 21% | 1015.5 hPa | - | - | - | - |
| 1788281579 | 43.33° C | 21% | 1015.3 hPa | - | - | - | - |
| 1788280679 | 43.89° C | 21% | 1015.3 hPa | - | - | - | - |
| 1788279779 | 43.89° C | 21% | 1015.4 hPa | - | - | - | - |
| 1788278879 | 44.44° C | 21% | 1015.2 hPa | - | - | - | - |
| 1788277978 | 45° C | 22% | 1015.3 hPa | - | - | - | - |
| 1788277078 | 45° C | 21% | 1015.3 hPa | - | - | - | - |
| 1788276178 | 45.56° C | 22% | 1015.5 hPa | - | - | - | - |
| 1788275278 | 46.67° C | 21% | 1015.6 hPa | - | - | - | - |
| 1788274378 | 46.11° C | 22% | 1015.6 hPa | - | - | - | - |
| 1788273474 | 45.56° C | 22% | 1015.8 hPa | - | - | - | - |
| 1788272574 | 46.11° C | 21% | 1016 hPa | - | - | - | - |
| 1788271673 | 45.56° C | 22% | 1016.1 hPa | - | - | - | - |
| 1788270773 | 45.56° C | 22% | 1016.3 hPa | - | - | - | - |
| 1788269873 | 45.56° C | 22% | 1016.5 hPa | - | - | - | - |
| 1788268973 | 45° C | 22% | 1016.7 hPa | - | - | - | - |
| 1788268073 | 44.44° C | 22% | 1017 hPa | - | - | - | - |
| 1788267173 | 43.33° C | 22% | 1017.1 hPa | - | - | - | - |
| 1788266273 | 43.33° C | 22% | 1017.3 hPa | - | - | - | - |
| 1788265373 | 42.78° C | 22% | 1017.5 hPa | - | - | - | - |
| 1788264473 | 42.78° C | 22% | 1017.5 hPa | - | - | - | - |
| 1788263572 | 43.33° C | 22% | 1017.6 hPa | - | - | - | - |
| 1788262672 | 43.33° C | 22% | 1017.9 hPa | - | - | - | - |
* Rain since midnight (hover to see other rain measurements)
** Current wind speed in m/s (hover to see current wind gust speed)